When you browse on this site, cookies collect data to enhance your experience and personalize the content and advertising you see.
Visit our Privacy Policy to learn more. By continuing to use the site, you agree to this use of cookies and data.
  • In United Kingdom
  • List of Countries
  • For 7 days
  • Water Temperature
  • Satellite Maps
  • Weather Map
  • Weather Widgets
  • user-avatar
    Login

    Hourly Weather Top

    Today, 22 January, Tuesday

    Time Temperature Precipitation Wind Pressure Humidity
    00:00 +17°C° 0 mm 2 mps 686 mmHg 85%
    01:00 +15°C° 0 mm 0 mps 685 mmHg 89%
    02:00 +16°C° 0 mm 1 mps 686 mmHg 89%
    03:00 +16°C° 0 mm 1 mps 686 mmHg 90%
    04:00 +16°C° 0 mm 1 mps 686 mmHg 90%
    05:00 +18°C° 0 mm 1 mps 686 mmHg 89%
    06:00 +18°C° 0 mm 1 mps 686 mmHg 87%
    07:00 +18°C° 0 mm 1 mps 687 mmHg 84%
    08:00 +19°C° 0 mm 2 mps 687 mmHg 75%
    09:00 +21°C° 0 mm 2 mps 688 mmHg 67%
    10:00 +24°C° 0 mm 2 mps 688 mmHg 58%
    11:00 +24°C° 0 mm 3 mps 688 mmHg 55%
    12:00 +25°C° 0 mm 3 mps 688 mmHg 52%
    13:00 +26°C° 0 mm 3 mps 688 mmHg 49%
    14:00 +25°C° 0 mm 3 mps 687 mmHg 53%
    15:00 +24°C° 0 mm 2 mps 686 mmHg 58%
    16:00 +21°C° 0 mm 2 mps 686 mmHg 63%
    17:00 +20°C° 0 mm 2 mps 686 mmHg 69%
    18:00 +18°C° 0 mm 2 mps 685 mmHg 76%
    19:00 +17°C° 0 mm 2 mps 685 mmHg 82%
    20:00 +16°C° 0 mm 2 mps 685 mmHg 84%
    21:00 +16°C° 0 mm 1 mps 686 mmHg 86%
    22:00 +15°C° 0 mm 1 mps 686 mmHg 88%
    23:00 +15°C° 0 mm 1 mps 686 mmHg 89%

    Tomorrow, 23 January, Wednesday

    Time Temperature Precipitation Wind Pressure Humidity
    00:00 +15°C° 0 mm 1 mps 685 mmHg 91%
    01:00 +14°C° 0 mm 1 mps 685 mmHg 92%
    02:00 +14°C° 0 mm 1 mps 685 mmHg 93%
    03:00 +14°C° 0 mm 1 mps 685 mmHg 94%
    04:00 +13°C° 0 mm 1 mps 685 mmHg 95%
    05:00 +13°C° 0 mm 1 mps 685 mmHg 95%
    06:00 +13°C° 0 mm 1 mps 685 mmHg 94%
    07:00 +13°C° 0 mm 1 mps 685 mmHg 93%
    08:00 +16°C° 0 mm 1 mps 686 mmHg 79%
    09:00 +20°C° 0 mm 1 mps 687 mmHg 65%
    10:00 +23°C° 0 mm 1 mps 688 mmHg 51%
    11:00 +25°C° 0 mm 1 mps 687 mmHg 46%
    12:00 +26°C° 0 mm 2 mps 687 mmHg 42%
    13:00 +28°C° 0 mm 2 mps 687 mmHg 38%
    14:00 +27°C° 0 mm 2 mps 686 mmHg 40%
    15:00 +26°C° 0 mm 2 mps 686 mmHg 43%
    16:00 +26°C° 0 mm 2 mps 685 mmHg 45%
    17:00 +23°C° 0 mm 1 mps 685 mmHg 56%
    18:00 +21°C° 0 mm 1 mps 685 mmHg 68%
    19:00 +18°C° 0 mm 1 mps 685 mmHg 79%
    20:00 +16°C° 0 mm 1 mps 685 mmHg 82%
    21:00 +16°C° 0 mm 1 mps 685 mmHg 84%
    22:00 +15°C° 0 mm 1 mps 685 mmHg 87%
    23:00 +14°C° 0 mm 1 mps 685 mmHg 89%

    Day after tomorrow, 24 January, Thursday

    Time Temperature Precipitation Wind Pressure Humidity
    00:00 +14°C° 0 mm 1 mps 685 mmHg 91%
    01:00 +13°C° 0 mm 1 mps 684 mmHg 92%
    02:00 +13°C° 0 mm 1 mps 684 mmHg 93%
    03:00 +12°C° 0 mm 1 mps 684 mmHg 93%
    04:00 +12°C° 0 mm 1 mps 683 mmHg 93%
    05:00 +12°C° 0 mm 1 mps 684 mmHg 92%
    06:00 +12°C° 0 mm 1 mps 684 mmHg 91%
    07:00 +12°C° 0 mm 1 mps 685 mmHg 89%
    08:00 +16°C° 0 mm 1 mps 686 mmHg 75%
    09:00 +20°C° 0 mm 1 mps 687 mmHg 61%
    10:00 +23°C° 0 mm 1 mps 688 mmHg 46%
    11:00 +25°C° 0 mm 1 mps 688 mmHg 42%
    12:00 +27°C° 0 mm 1 mps 687 mmHg 37%
    13:00 +29°C° 0 mm 1 mps 687 mmHg 32%
    14:00 +28°C° 0 mm 1 mps 686 mmHg 35%
    15:00 +27°C° 0 mm 1 mps 685 mmHg 37%
    16:00 +27°C° 0 mm 1 mps 685 mmHg 39%
    17:00 +24°C° 0 mm 1 mps 685 mmHg 52%
    18:00 +21°C° 0 mm 1 mps 685 mmHg 64%
    19:00 +18°C° 0 mm 1 mps 685 mmHg 77%
    20:00 +16°C° 0 mm 1 mps 685 mmHg 81%
    21:00 +16°C° 0 mm 1 mps 685 mmHg 86%
    22:00 +15°C° 0 mm 1 mps 685 mmHg 90%
    23:00 +14°C° 0 mm 1 mps 685 mmHg 90%

    25 January, Friday

    Time Temperature Precipitation Wind Pressure Humidity
    00:00 +13°C° 0 mm 1 mps 685 mmHg 91%
    01:00 +13°C° 0 mm 1 mps 684 mmHg 91%
    02:00 +12°C° 0 mm 1 mps 684 mmHg 90%
    03:00 +12°C° 0 mm 1 mps 684 mmHg 88%
    04:00 +12°C° 0 mm 1 mps 683 mmHg 86%
    05:00 +12°C° 0 mm 1 mps 684 mmHg 83%
    06:00 +11°C° 0 mm 1 mps 684 mmHg 81%
    07:00 +11°C° 0 mm 1 mps 685 mmHg 78%
    08:00 +15°C° 0 mm 1 mps 686 mmHg 63%
    09:00 +20°C° 0 mm 1 mps 687 mmHg 48%
    10:00 +24°C° 0 mm 1 mps 688 mmHg 34%
    11:00 +26°C° 0 mm 1 mps 688 mmHg 32%
    12:00 +27°C° 0 mm 2 mps 687 mmHg 31%
    13:00 +28°C° 0 mm 2 mps 687 mmHg 29%
    14:00 +27°C° 0 mm 2 mps 686 mmHg 33%
    15:00 +26°C° 0 mm 2 mps 686 mmHg 38%
    16:00 +25°C° 0 mm 2 mps 685 mmHg 42%
    17:00 +23°C° 0 mm 2 mps 685 mmHg 54%
    18:00 +19°C° 0 mm 2 mps 686 mmHg 66%
    19:00 +17°C° 0 mm 2 mps 686 mmHg 78%
    20:00 +16°C° 0 mm 2 mps 686 mmHg 81%
    21:00 +15°C° 0 mm 2 mps 686 mmHg 84%
    22:00 +15°C° 0 mm 2 mps 687 mmHg 87%
    23:00 +15°C° 0 mm 2 mps 687 mmHg 88%

    26 January, Saturday

    Time Temperature Precipitation Wind Pressure Humidity
    00:00 +14°C° 0 mm 2 mps 686 mmHg 89%
    01:00 +14°C° 0 mm 2 mps 686 mmHg 90%
    02:00 +14°C° 0 mm 2 mps 686 mmHg 90%
    03:00 +14°C° 0 mm 2 mps 686 mmHg 90%
    04:00 +14°C° 0 mm 2 mps 685 mmHg 90%
    05:00 +14°C° 0 mm 2 mps 686 mmHg 89%
    06:00 +14°C° 0 mm 2 mps 686 mmHg 87%
    07:00 +14°C° 0 mm 2 mps 687 mmHg 86%
    08:00 +16°C° 0 mm 2 mps 687 mmHg 77%
    09:00 +19°C° 0 mm 2 mps 688 mmHg 67%
    10:00 +21°C° 0 mm 2 mps 689 mmHg 58%
    11:00 +23°C° 0 mm 2 mps 688 mmHg 54%
    12:00 +23°C° 0 mm 2 mps 688 mmHg 51%
    13:00 +24°C° 0 mm 3 mps 687 mmHg 47%
    14:00 +24°C° 0 mm 3 mps 687 mmHg 51%
    15:00 +22°C° 0 mm 3 mps 686 mmHg 55%
    16:00 +21°C° 0 mm 3 mps 686 mmHg 59%
    17:00 +19°C° 0 mm 2 mps 686 mmHg 66%
    18:00 +18°C° 0 mm 2 mps 686 mmHg 72%
    19:00 +16°C° 0 mm 2 mps 686 mmHg 79%
    20:00 +16°C° 0 mm 2 mps 687 mmHg 81%
    21:00 +15°C° 0 mm 2 mps 687 mmHg 83%
    22:00 +14°C° 0 mm 2 mps 687 mmHg 85%
    23:00 +14°C° 0 mm 2 mps 687 mmHg 85%

    27 January, Sunday

    Time Temperature Precipitation Wind Pressure Humidity
    00:00 +14°C° 0 mm 2 mps 687 mmHg 86%
    01:00 +13°C° 0 mm 2 mps 686 mmHg 86%
    02:00 +13°C° 0 mm 2 mps 686 mmHg 87%
    03:00 +13°C° 0 mm 2 mps 686 mmHg 88%
    04:00 +13°C° 0 mm 2 mps 686 mmHg 89%
    05:00 +14°C° 0 mm 2 mps 686 mmHg 87%
    06:00 +14°C° 0 mm 2 mps 687 mmHg 86%
    07:00 +14°C° 0 mm 2 mps 687 mmHg 85%
    08:00 +16°C° 0 mm 2 mps 688 mmHg 76%
    09:00 +18°C° 0 mm 2 mps 689 mmHg 67%
    10:00 +20°C° 0 mm 2 mps 689 mmHg 58%
    11:00 +21°C° 0 mm 2 mps 689 mmHg 57%
    12:00 +23°C° 0 mm 2 mps 688 mmHg 56%
    13:00 +23°C° 0 mm 2 mps 688 mmHg 55%
    14:00 +21°C° 0 mm 2 mps 687 mmHg 59%
    15:00 +21°C° 0 mm 2 mps 686 mmHg 63%
    16:00 +20°C° 0 mm 2 mps 686 mmHg 67%
    17:00 +18°C° 0 mm 2 mps 686 mmHg 73%
    18:00 +17°C° 0 mm 2 mps 686 mmHg 79%
    19:00 +15°C° 0 mm 2 mps 686 mmHg 84%
    20:00 +15°C° 0 mm 2 mps 686 mmHg 86%
    21:00 +15°C° 0 mm 2 mps 687 mmHg 88%
    22:00 +14°C° 0 mm 2 mps 687 mmHg 90%
    23:00 +14°C° 0 mm 2 mps 687 mmHg 90%
    Show more